Year,Month,Day,Hour,Minute,Value (Times are PST for windgust in km/hr)
2020,09,10,12,19,8.10
2020,09,10,12,20,16.10
2020,09,10,12,21,9.60
2020,09,10,12,22,8.10
2020,09,10,12,23,9.60
2020,09,10,12,24,12.90
2020,09,10,12,25,8.10
2020,09,10,12,26,8.10
2020,09,10,12,27,9.60
2020,09,10,12,28,8.10
2020,09,10,12,29,8.10
2020,09,10,12,30,8.10
2020,09,10,12,31,6.40
2020,09,10,12,32,4.80
2020,09,10,12,33,3.20
2020,09,10,12,34,9.60
2020,09,10,12,35,11.30
2020,09,10,12,36,6.40
2020,09,10,12,37,11.30
2020,09,10,12,38,8.10
2020,09,10,12,39,6.40
2020,09,10,12,40,9.60
2020,09,10,12,41,9.60
2020,09,10,12,42,9.60
2020,09,10,12,43,9.60
2020,09,10,12,44,6.40
2020,09,10,12,45,9.60
2020,09,10,12,46,6.40
2020,09,10,12,47,4.80
2020,09,10,12,48,9.60
2020,09,10,12,49,11.30
2020,09,10,12,50,8.10
2020,09,10,12,51,9.60
2020,09,10,12,52,9.60
2020,09,10,12,53,11.30
2020,09,10,12,54,9.60
2020,09,10,12,55,9.60
2020,09,10,12,56,9.60
2020,09,10,12,57,14.50
2020,09,10,12,58,9.60
2020,09,10,12,59,11.30
2020,09,10,13,00,11.30
2020,09,10,13,01,11.30
2020,09,10,13,02,14.50
2020,09,10,13,03,14.50
2020,09,10,13,04,11.30
2020,09,10,13,05,19.30
2020,09,10,13,06,8.10
2020,09,10,13,07,6.40
2020,09,10,13,08,6.40
2020,09,10,13,09,6.40
2020,09,10,13,10,9.60
2020,09,10,13,11,11.30
2020,09,10,13,12,9.60
2020,09,10,13,13,11.30
2020,09,10,13,14,17.70
2020,09,10,13,15,11.30
2020,09,10,13,16,8.10
2020,09,10,13,17,12.90
2020,09,10,13,18,9.60
2020,09,10,13,19,9.60
2020,09,10,13,20,9.60
2020,09,10,13,21,11.30
2020,09,10,13,22,9.60
2020,09,10,13,23,9.60
2020,09,10,13,24,9.60
2020,09,10,13,25,9.60
2020,09,10,13,26,9.60
2020,09,10,13,27,9.60
2020,09,10,13,28,8.10
2020,09,10,13,29,8.10
2020,09,10,13,30,9.60
2020,09,10,13,31,9.60
2020,09,10,13,32,6.40
2020,09,10,13,33,11.30
2020,09,10,13,34,8.10
2020,09,10,13,35,16.10
2020,09,10,13,36,11.30
2020,09,10,13,37,8.10
2020,09,10,13,38,8.10
2020,09,10,13,39,8.10
2020,09,10,13,40,4.80
2020,09,10,13,41,4.80
2020,09,10,13,42,9.60
2020,09,10,13,43,6.40
2020,09,10,13,44,6.40
2020,09,10,13,45,8.10
2020,09,10,13,46,8.10
2020,09,10,13,47,9.60
2020,09,10,13,48,9.60
2020,09,10,13,49,9.60
2020,09,10,13,50,8.10
2020,09,10,13,51,8.10
2020,09,10,13,52,9.60
2020,09,10,13,53,9.60
2020,09,10,13,54,8.10
2020,09,10,13,55,6.40
2020,09,10,13,56,11.30
2020,09,10,13,57,8.10
2020,09,10,13,58,8.10
2020,09,10,13,59,9.60
2020,09,10,14,00,11.30
2020,09,10,14,01,6.40
2020,09,10,14,02,9.60
2020,09,10,14,03,4.80
2020,09,10,14,04,8.10
2020,09,10,14,05,8.10
2020,09,10,14,06,8.10
2020,09,10,14,07,11.30
2020,09,10,14,08,9.60
2020,09,10,14,09,9.60
2020,09,10,14,10,6.40
2020,09,10,14,11,14.50
2020,09,10,14,12,8.10
2020,09,10,14,13,8.10
2020,09,10,14,14,8.10
2020,09,10,14,15,11.30
2020,09,10,14,16,4.80
2020,09,10,14,17,8.10
2020,09,10,14,18,8.10
2020,09,10,14,19,4.80
2020,09,10,14,20,6.40
2020,09,10,14,21,9.60
2020,09,10,14,22,8.10
2020,09,10,14,23,6.40
2020,09,10,14,24,6.40
2020,09,10,14,25,6.40
2020,09,10,14,26,9.60
2020,09,10,14,27,6.40
2020,09,10,14,28,4.80
2020,09,10,14,29,8.10
2020,09,10,14,30,6.40
2020,09,10,14,31,8.10
2020,09,10,14,32,6.40
2020,09,10,14,33,11.30
2020,09,10,14,34,8.10
2020,09,10,14,35,8.10
2020,09,10,14,36,9.60
2020,09,10,14,37,9.60
2020,09,10,14,38,6.40
2020,09,10,14,39,9.60
2020,09,10,14,40,8.10
2020,09,10,14,41,11.30
2020,09,10,14,42,9.60
2020,09,10,14,43,4.80
2020,09,10,14,44,8.10
2020,09,10,14,45,6.40
2020,09,10,14,46,6.40
2020,09,10,14,47,8.10
2020,09,10,14,48,4.80
2020,09,10,14,49,9.60
2020,09,10,14,50,6.40
2020,09,10,14,51,8.10
2020,09,10,14,52,8.10
2020,09,10,14,53,4.80
2020,09,10,14,54,8.10
2020,09,10,14,55,6.40
2020,09,10,14,56,8.10
2020,09,10,14,57,8.10
2020,09,10,14,58,6.40
2020,09,10,14,59,6.40
2020,09,10,15,00,8.10
2020,09,10,15,01,6.40
2020,09,10,15,02,4.80
2020,09,10,15,03,6.40
2020,09,10,15,04,4.80
2020,09,10,15,05,4.80
2020,09,10,15,06,6.40
2020,09,10,15,07,6.40
2020,09,10,15,08,6.40
2020,09,10,15,09,6.40
2020,09,10,15,10,8.10
2020,09,10,15,11,8.10
2020,09,10,15,12,9.60
2020,09,10,15,13,3.20
2020,09,10,15,14,8.10
2020,09,10,15,15,4.80
2020,09,10,15,16,8.10
2020,09,10,15,17,4.80
2020,09,10,15,18,6.40
2020,09,10,15,19,6.40
2020,09,10,15,20,4.80
2020,09,10,15,21,4.80
2020,09,10,15,22,1.60
2020,09,10,15,23,1.60
2020,09,10,15,24,4.80
2020,09,10,15,25,3.20
2020,09,10,15,26,6.40
2020,09,10,15,27,4.80
2020,09,10,15,28,4.80
2020,09,10,15,29,3.20
2020,09,10,15,30,4.80
2020,09,10,15,31,1.60
2020,09,10,15,32,6.40
2020,09,10,15,33,4.80
2020,09,10,15,34,3.20
2020,09,10,15,35,4.80
2020,09,10,15,36,3.20
2020,09,10,15,37,3.20
2020,09,10,15,38,3.20
2020,09,10,15,39,6.40
2020,09,10,15,40,4.80
2020,09,10,15,41,4.80
2020,09,10,15,42,6.40
2020,09,10,15,43,1.60
2020,09,10,15,44,3.20
2020,09,10,15,45,4.80
2020,09,10,15,46,4.80
2020,09,10,15,47,4.80
2020,09,10,15,48,8.10
2020,09,10,15,49,3.20
2020,09,10,15,50,3.20
2020,09,10,15,51,8.10
2020,09,10,15,52,6.40
2020,09,10,15,53,3.20
2020,09,10,15,54,6.40
2020,09,10,15,55,6.40
2020,09,10,15,56,3.20
2020,09,10,15,57,3.20
2020,09,10,15,58,1.60
2020,09,10,15,59,1.60
2020,09,10,16,00,3.20
2020,09,10,16,01,4.80
2020,09,10,16,02,3.20
2020,09,10,16,03,8.10
2020,09,10,16,04,6.40
2020,09,10,16,05,3.20
2020,09,10,16,06,3.20
2020,09,10,16,07,4.80
2020,09,10,16,08,4.80
2020,09,10,16,09,4.80
2020,09,10,16,10,6.40
2020,09,10,16,11,4.80
2020,09,10,16,12,3.20
2020,09,10,16,13,4.80
2020,09,10,16,14,6.40
2020,09,10,16,15,4.80
2020,09,10,16,16,3.20
2020,09,10,16,17,4.80
2020,09,10,16,18,3.20
2020,09,10,16,19,4.80
2020,09,10,16,20,3.20
2020,09,10,16,21,4.80
2020,09,10,16,22,3.20
2020,09,10,16,23,6.40
2020,09,10,16,24,4.80
2020,09,10,16,25,4.80
2020,09,10,16,26,11.30
2020,09,10,16,27,4.80
2020,09,10,16,28,9.60
2020,09,10,16,29,6.40
2020,09,10,16,30,8.10
2020,09,10,16,31,8.10
2020,09,10,16,32,8.10
2020,09,10,16,33,6.40
2020,09,10,16,34,4.80
2020,09,10,16,35,4.80
2020,09,10,16,36,8.10
2020,09,10,16,37,4.80
2020,09,10,16,38,4.80
2020,09,10,16,39,6.40
2020,09,10,16,40,6.40
2020,09,10,16,41,6.40
2020,09,10,16,42,6.40
2020,09,10,16,43,6.40
2020,09,10,16,44,6.40
2020,09,10,16,45,4.80
2020,09,10,16,46,8.10
2020,09,10,16,47,9.60
2020,09,10,16,48,6.40
2020,09,10,16,49,4.80
2020,09,10,16,50,3.20
2020,09,10,16,51,4.80
2020,09,10,16,52,6.40
2020,09,10,16,53,4.80
2020,09,10,16,54,4.80
2020,09,10,16,55,3.20
2020,09,10,16,56,3.20
2020,09,10,16,57,4.80
2020,09,10,16,58,4.80
2020,09,10,16,59,8.10
2020,09,10,17,00,8.10
2020,09,10,17,01,3.20
2020,09,10,17,02,4.80
2020,09,10,17,03,4.80
2020,09,10,17,04,6.40
2020,09,10,17,05,4.80
2020,09,10,17,06,6.40
2020,09,10,17,07,3.20
2020,09,10,17,08,6.40
2020,09,10,17,09,4.80
2020,09,10,17,10,4.80
2020,09,10,17,11,3.20
2020,09,10,17,12,1.60
2020,09,10,17,13,1.60
2020,09,10,17,14,1.60
2020,09,10,17,15,4.80
2020,09,10,17,16,4.80
2020,09,10,17,17,6.40
2020,09,10,17,18,4.80
2020,09,10,17,19,8.10
2020,09,10,17,20,6.40
2020,09,10,17,21,11.30
2020,09,10,17,22,6.40
2020,09,10,17,23,4.80
2020,09,10,17,24,4.80
2020,09,10,17,25,4.80
2020,09,10,17,26,3.20
2020,09,10,17,27,8.10
2020,09,10,17,28,6.40
2020,09,10,17,29,4.80
2020,09,10,17,30,8.10
2020,09,10,17,31,6.40
2020,09,10,17,32,4.80
2020,09,10,17,33,6.40
2020,09,10,17,34,4.80
2020,09,10,17,35,6.40
2020,09,10,17,36,4.80
2020,09,10,17,37,3.20
2020,09,10,17,38,4.80
2020,09,10,17,39,4.80
2020,09,10,17,40,4.80
2020,09,10,17,41,1.60
2020,09,10,17,42,3.20
2020,09,10,17,43,1.60
2020,09,10,17,45,4.80
2020,09,10,17,46,1.60
2020,09,10,17,47,3.20
2020,09,10,17,48,1.60
2020,09,10,17,49,3.20
2020,09,10,17,50,1.60
2020,09,10,17,51,1.60
2020,09,10,17,52,1.60
2020,09,10,17,53,1.60
2020,09,10,17,54,1.60
2020,09,10,17,55,1.60
2020,09,10,17,56,1.60
2020,09,10,17,57,3.20
2020,09,10,17,59,1.60
2020,09,10,18,00,3.20
2020,09,10,18,01,3.20
2020,09,10,18,02,3.20
2020,09,10,18,03,4.80
2020,09,10,18,04,4.80
2020,09,10,18,05,3.20
2020,09,10,18,06,1.60
2020,09,10,18,07,1.60
2020,09,10,18,08,1.60
2020,09,10,18,09,1.60
2020,09,10,18,10,1.60
2020,09,10,18,11,1.60
2020,09,10,18,12,1.60
2020,09,10,18,13,1.60
2020,09,10,18,14,1.60
2020,09,10,18,15,1.60
2020,09,10,18,16,1.60
2020,09,10,18,18,1.60
2020,09,10,18,19,1.60
2020,09,10,18,20,1.60
2020,09,10,18,21,1.60
2020,09,10,18,22,1.60
2020,09,10,18,23,1.60
2020,09,10,18,24,1.60
2020,09,10,18,25,3.20
2020,09,10,18,26,4.80
2020,09,10,18,27,1.60
2020,09,10,18,28,1.60
2020,09,10,18,29,3.20
2020,09,10,18,30,3.20
2020,09,10,18,31,4.80
2020,09,10,18,32,4.80
2020,09,10,18,33,4.80
2020,09,10,18,34,3.20
2020,09,10,18,35,1.60
2020,09,10,18,36,1.60
2020,09,10,18,37,1.60
2020,09,10,18,38,1.60
2020,09,10,18,40,1.60
2020,09,10,18,41,3.20
2020,09,10,18,42,4.80
2020,09,10,18,43,3.20
2020,09,10,18,44,3.20
2020,09,10,18,45,3.20
2020,09,10,18,46,3.20
2020,09,10,18,47,3.20
2020,09,10,18,48,4.80
2020,09,10,18,49,1.60
2020,09,10,18,50,1.60
2020,09,10,18,51,3.20
2020,09,10,18,52,1.60
2020,09,10,18,53,4.80
2020,09,10,18,54,4.80
2020,09,10,18,55,6.40
2020,09,10,18,56,6.40
2020,09,10,18,57,4.80
2020,09,10,18,58,4.80
2020,09,10,18,59,6.40
2020,09,10,19,00,3.20
2020,09,10,19,01,3.20
2020,09,10,19,02,4.80
2020,09,10,19,03,6.40
2020,09,10,19,04,6.40
2020,09,10,19,05,6.40
2020,09,10,19,06,3.20
2020,09,10,19,07,6.40
2020,09,10,19,08,8.10
2020,09,10,19,09,6.40
2020,09,10,19,10,3.20
2020,09,10,19,11,3.20
2020,09,10,19,12,6.40
2020,09,10,19,13,3.20
2020,09,10,19,14,3.20
2020,09,10,19,15,1.60
2020,09,10,19,16,6.40
2020,09,10,19,17,8.10
2020,09,10,19,18,9.60
2020,09,10,19,19,9.60
2020,09,10,19,20,9.60
2020,09,10,19,21,9.60
2020,09,10,19,22,9.60
2020,09,10,19,23,9.60
2020,09,10,19,24,6.40
2020,09,10,19,25,8.10
2020,09,10,19,26,4.80
2020,09,10,19,27,4.80
2020,09,10,19,28,4.80
2020,09,10,19,29,4.80
2020,09,10,19,30,4.80
2020,09,10,19,31,4.80
2020,09,10,19,32,4.80
2020,09,10,19,33,4.80
2020,09,10,19,34,4.80
2020,09,10,19,35,4.80
2020,09,10,19,36,4.80
